Location: *
(33.8649°S, 62.1526°E)
Time: 13:13:01
(UTC+00:00)

Cosmos 883 Rocket - Pass Details

Date: 17 January 2021
Orbit: 950 x 996 km, 83.0° (Epoch: 02 March)

Event Time Altitude Azimuth Distance (km) Brightness Sun altitude
Exits shadow 17:25:12 50° 15° (NNE) 1,201 4.6 -24.0°
Maximum altitude 17:26:52 76° 87° (E) 990 4.3 -24.2°
Drops below altitude 10° 17:33:02 10° 170° (S) 2,704 7.3 -25.1°
Sets 17:35:33 0° 171° (S) 3,659 8.1 -25.4°
